FW3988 Weather Reports


time (UTC)temp
C
wind
direction
speed
KPH
gust
KPH
rain 1hr
cm
rain 24hr
cm
rain mn
cm
humidity
%
barometer
mb
20260906131530 28 90 0.0 4.8 0.00 0.00 0.00 85 1009.5
20260906130000 28 59 1.6 6.4 0.00 0.00 0.00 85 1009.3
20260906124608 28 59 0.0 3.2 0.00 0.00 0.00 82 1009.4
20260906123049 28 59 0.0 4.8 0.00 0.00 0.00 81 1009.3
20260906121542 28 94 1.6 4.8 0.00 0.00 0.00 79 1009.3
20260906120137 28 55 0.0 8.0 0.00 0.00 0.00 81 1009.4
20260906114526 28 36 3.2 6.4 0.00 0.00 0.00 73 1009.3
20260906113020 28 243 0.0 3.2 0.00 0.00 0.00 76 1009.3
20260906111501 28 243 0.0 3.2 0.00 0.00 0.00 78 1009.3
20260906110145 28 243 3.2 9.7 0.00 0.00 0.00 76 1009.2
20260906104522 28 245 8.0 14.5 0.00 0.00 0.00 74 1009.0
20260906103017 29 250 9.7 16.1 0.00 0.00 0.00 81 1009.3
20260906101549 30 273 0.0 3.2 0.00 0.00 0.00 84 1009.4
20260906100134 30 273 0.0 3.2 0.00 0.00 0.00 85 1009.2
20260906094547 30 273 0.0 4.8 0.00 0.00 0.00 86 1009.2
20260906093025 30 273 1.6 4.8 0.00 0.00 0.00 80 1009.2
20260906091601 30 277 0.0 4.8 0.00 0.00 0.00 79 1009.2
20260906090143 30 301 3.2 8.0 0.00 0.00 0.00 80 1009.3
20260906084529 30 286 1.6 4.8 0.00 0.00 0.00 79 1009.1
20260906083007 30 360 1.6 4.8 0.00 0.00 0.00 79 1009.1
20260906081550 30 5 0.0 3.2 0.00 0.00 0.00 80 1009.3
20260906080133 30 5 1.6 4.8 0.00 0.00 0.00 80 1009.3
20260906074507 30 336 0.0 3.2 0.00 0.10 0.00 80 1009.5
20260906073005 30 335 0.0 3.2 0.00 0.10 0.00 80 1009.7
20260906071551 30 333 1.6 6.4 0.00 0.10 0.00 80 1009.7
20260906070011 30 348 1.6 6.4 0.00 0.10 0.00 80 1009.6
20260906064505 30 290 3.2 9.7 0.00 0.43 0.10 80 1009.6
20260906063007 30 346 3.2 8.0 0.00 0.43 0.10 80 1009.6
20260906061615 30 316 3.2 8.0 0.00 0.43 0.10 79 1009.7
20260906060149 30 333 1.6 8.0 0.00 0.43 0.10 78 1009.9
20260906054537 30 325 4.8 9.7 0.00 0.43 0.10 78 1010.1
20260906053009 31 325 1.6 6.4 0.00 0.43 0.10 78 1010.2
20260906051559 31 328 3.2 8.0 0.00 0.43 0.10 78 1010.3
20260906050137 31 305 4.8 8.0 0.00 0.43 0.10 77 1010.4
20260906044519 31 321 1.6 6.4 0.00 0.46 0.10 77 1010.5
20260906043018 31 337 3.2 8.0 0.00 0.46 0.10 77 1010.3
20260906041557 31 333 3.2 9.7 0.00 0.46 0.10 76 1010.1
20260906040148 31 298 4.8 14.5 0.00 0.46 0.10 77 1010.2
20260906034528 31 277 6.4 19.3 0.00 0.46 0.10 77 1010.1
20260906033005 31 322 6.4 16.1 0.00 0.46 0.10 76 1009.9
20260906031551 31 302 6.4 14.5 0.00 0.46 0.10 76 1009.9
20260906030132 31 271 8.0 20.9 0.00 0.46 0.10 78 1009.7
20260906024514 31 271 4.8 14.5 0.00 0.46 0.10 78 1009.6
20260906023107 31 276 8.0 14.5 0.00 0.46 0.10 78 1009.4
20260906021551 31 269 6.4 17.7 0.00 0.46 0.10 78 1009.4
20260906020022 31 258 8.0 16.1 0.00 0.46 0.10 79 1009.1
20260906014514 31 250 9.7 22.5 0.00 0.46 0.10 80 1008.9
20260906013057 31 282 4.8 17.7 0.00 0.46 0.10 79 1008.8
20260906011537 31 269 6.4 17.7 0.00 0.46 0.10 76 1008.5
20260906010130 31 250 6.4 17.7 0.00 0.46 0.10 74 1008.2
20260906004529 31 259 6.4 17.7 0.00 0.46 0.10 73 1008.1
20260906003015 32 220 4.8 19.3 0.00 0.46 0.10 74 1007.9
20260906001553 32 272 11.3 19.3 0.00 0.46 0.10 74 1007.8
20260906000023 32 271 8.0 17.7 0.00 0.46 0.10 74 1007.8
20260905234514 32 279 9.7 20.9 0.00 0.46 0.10 72 1007.9
20260905233117 32 274 9.7 16.1 0.00 0.46 0.10 71 1007.9
20260905231551 32 243 11.3 22.5 0.00 0.46 0.10 71 1007.8
20260905230148 32 227 8.0 19.3 0.00 0.46 0.10 71 1007.7
20260905224530 33 259 9.7 17.7 0.00 0.46 0.10 72 1007.8
20260905223013 32 291 9.7 20.9 0.00 0.46 0.10 72 1007.8
20260905221556 32 265 6.4 19.3 0.00 0.46 0.10 71 1007.9
20260905220013 32 265 11.3 22.5 0.00 0.46 0.10 72 1008.0
20260905214505 32 248 9.7 22.5 0.00 0.46 0.10 73 1008.3
20260905213103 33 249 11.3 22.5 0.00 0.46 0.10 70 1008.3
20260905211548 33 264 8.0 19.3 0.00 0.46 0.10 70 1008.6
20260905210146 33 244 9.7 24.1 0.00 0.46 0.10 70 1008.6
20260905204544 33 255 9.7 22.5 0.00 0.46 0.10 70 1008.8
20260905203038 33 281 12.9 20.9 0.00 0.46 0.10 70 1008.9
20260905201542 33 262 11.3 24.1 0.00 0.46 0.10 70 1009.3
20260905200136 32 226 12.9 19.3 0.00 0.46 0.10 71 1009.4
20260905194528 33 242 11.3 19.3 0.00 0.46 0.10 71 1009.9
20260905193012 33 238 9.7 25.7 0.00 0.46 0.10 68 1009.9
20260905191600 33 257 8.0 20.9 0.00 0.46 0.10 66 1010.0
20260905190030 33 267 9.7 17.7 0.00 0.46 0.10 67 1010.3
20260905184520 33 287 9.7 16.1 0.00 0.46 0.10 65 1010.4
20260905183117 33 250 6.4 17.7 0.00 0.46 0.10 67 1010.7
20260905181547 33 263 8.0 17.7 0.00 0.46 0.10 65 1010.9
20260905180132 33 254 9.7 17.7 0.00 0.46 0.10 60 1011.0
20260905174517 33 284 6.4 19.3 0.00 0.46 0.10 58 1011.0
20260905173100 33 301 6.4 14.5 0.00 0.46 0.10 61 1010.9
20260905173000 33 264 9.7 14.5 0.00 0.46 0.10 62 1010.9
20260905171554 33 335 0.0 11.3 0.00 0.46 0.10 65 1010.9
20260905170139 32 316 6.4 12.9 0.00 0.46 0.10 65 1011.1
20260905164511 32 290 1.6 14.5 0.00 0.46 0.10 67 1011.2
20260905163002 32 340 4.8 16.1 0.00 0.46 0.10 68 1011.3
20260905161541 31 313 6.4 12.9 0.00 0.46 0.10 68 1011.3
20260905160142 31 316 3.2 8.0 0.00 0.46 0.10 70 1011.3
20260905154540 31 360 0.0 8.0 0.00 0.46 0.10 74 1011.3
20260905153022 30 22 3.2 6.4 0.00 0.46 0.10 78 1011.4
20260905151503 29 57 0.0 4.8 0.00 0.46 0.10 79 1011.5
20260905150141 29 55 0.0 4.8 0.00 0.46 0.10 80 1011.5
20260905144528 29 72 3.2 6.4 0.00 0.46 0.10 80 1011.4
20260905143027 29 46 0.0 3.2 0.00 0.46 0.10 79 1011.3
20260905141507 28 46 0.0 3.2 0.00 0.46 0.10 81 1011.4
20260905140026 28 46 1.6 4.8 0.00 0.46 0.10 85 1011.3
20260905134524 27 38 1.6 4.8 0.00 0.46 0.10 86 1011.2
20260905133008 27 30 0.0 3.2 0.00 0.46 0.10 87 1010.9